Wind_Speed
107 99 92 88 84 81 73 67 67 64 59 58 58 55 54 58 57 56 49 48 52 52 53 54 50 44 26 17 15 19 18 18 20 16 15 10 28 33 30 28 25 21 17
99 95 91 85 80 73 69 68 64 60 58 55 53 54 56 57 56 50 46 49 48 51 53 51 43 32 23 20 18 20 17 17 18 15 12 8 26 33 32 28 28 22 21
92 87 82 80 76 73 70 67 63 59 55 55 54 54 55 53 48 44 47 46 47 50 50 43 38 25 21 23 23 21 19 23 21 16 12 8 18 31 33 32 29 20 21
80 77 73 70 69 67 66 62 57 55 55 54 52 50 50 48 44 42 43 43 46 48 44 39 34 23 22 23 23 18 19 22 23 17 15 11 15 20 31 30 23 19 20
66 63 59 55 56 56 56 54 49 51 52 49 47 47 45 38 39 42 41 43 45 44 39 40 27 18 18 19 21 22 22 22 21 16 18 18 16 21 27 29 25 22 18
47 45 44 45 44 46 45 42 44 46 44 43 45 42 40 39 39 38 41 41 42 38 37 32 21 15 16 18 22 24 26 26 22 21 14 18 19 22 26 28 25 26 20
38 33 31 33 34 32 31 32 35 35 37 39 37 38 38 38 39 40 38 38 35 34 34 24 17 16 18 21 23 25 28 28 22 18 18 17 20 20 25 27 29 22 21
30 29 25 19 20 22 20 23 27 30 30 32 37 38 38 38 36 35 34 33 32 31 28 17 16 18 19 24 28 31 30 26 18 19 22 23 21 22 26 24 24 26 27
33 27 20 14 12 19 17 21 24 28 32 35 35 33 33 30 31 34 33 32 29 27 18 15 16 18 24 28 31 34 29 23 21 22 25 26 26 24 23 25 26 25 27
30 23 20 15 12 12 18 22 25 25 25 28 28 27 26 29 31 31 29 26 23 22 15 13 15 21 27 30 29 27 22 19 18 23 25 28 27 28 30 29 28 29 27
27 18 19 20 14 19 19 20 23 22 25 25 22 23 26 28 27 27 24 22 21 15 12 11 16 23 28 23 22 19 18 19 22 25 28 29 32 33 32 30 31 28 29
39 34 28 27 20 20 19 17 19 22 22 19 20 24 25 25 27 25 21 19 15 13 9 12 18 26 24 17 14 14 14 15 18 21 25 25 26 28 29 30 30 32 31
44 38 37 24 20 16 13 16 19 21 18 18 20 21 21 22 23 18 17 15 15 10 6 11 18 24 17 11 9 8 8 10 12 14 18 23 23 23 24 30 30 29 28
40 35 23 25 23 18 17 19 21 18 18 19 18 18 20 18 15 16 15 19 14 8 5 11 17 17 11 12 8 2 3 7 9 15 19 21 21 22 23 27 30 31 31
40 28 24 22 26 19 19 20 18 18 18 16 15 17 18 16 15 16 14 18 14 7 4 8 12 13 10 11 8 7 10 15 19 21 21 20 19 19 20 23 27 27 25
32 22 23 25 18 19 20 19 18 17 17 14 15 16 18 14 12 13 22 18 14 10 5 3 8 13 16 15 12 10 14 21 23 24 21 20 19 19 20 22 22 22 21
27 24 24 18 17 19 18 16 17 19 20 17 18 17 16 13 11 12 24 20 18 13 9 4 8 11 16 19 19 16 15 19 19 19 16 15 14 17 19 21 21 20 18
14 16 20 18 17 16 13 15 16 18 19 21 19 16 14 15 13 15 27 24 21 15 12 9 5 6 9 13 17 18 17 12 13 16 18 19 21 20 19 17 16 15 14
12 16 15 15 15 13 9 10 12 15 19 19 14 12 15 16 16 15 27 26 24 20 16 11 7 6 4 5 7 10 12 13 14 12 14 15 14 14 13 11 10 9 9
14 14 14 14 12 7 6 8 11 13 15 13 11 11 14 17 17 18 25 29 26 22 18 13 13 7 6 5 3 5 5 7 9 9 8 8 8 7 8 9 10 10 11
8 15 17 14 9 7 7 10 10 12 11 10 11 12 13 18 20 20 26 31 29 26 21 19 17 12 11 8 5 6 5 7 8 8 9 10 11 11 12 13 15 16 17
11 16 18 15 9 5 5 5 7 9 10 12 12 12 11 14 18 22 25 29 30 26 23 20 19 17 15 13 11 11 11 12 11 11 11 16 19 19 19 20 20 21 23
13 17 19 14 8 7 3 1 3 2 2 1 2 7 11 14 17 19 23 26 30 30 27 24 21 19 19 18 18 19 19 19 20 20 21 21 23 24 25 26 29 30 31
16 19 17 13 8 8 6 3 0 3 3 5 4 5 5 11 13 14 21 21 22 27 29 29 27 26 25 25 26 26 27 27 26 27 27 28 30 32 33 36 37 38 39
16 20 17 14 10 8 8 5 4 4 6 7 7 6 2 9 13 16 18 19 19 19 21 24 25 24 24 26 28 30 31 33 33 33 35 36 36 35 34 35 37 38 38
15 21 19 13 13 12 10 9 8 5 3 4 3 6 7 4 2 7 10 11 10 10 10 11 13 15 18 19 19 20 22 23 25 28 29 30 30 31 31 33 34 36 37
Wind_Direction
256 256 256 258 260 262 264 263 265 269 272 274 277 278 281 284 287 289 291 292 298 302 306 309 312 314 297 293 307 314 306 298 309 297 309 268 202 213 219 223 224 227 228
255 255 256 256 258 260 260 262 263 266 269 271 275 277 279 280 284 285 287 293 299 303 305 309 310 306 284 292 296 305 296 309 310 292 297 242 199 211 215 226 227 231 222
251 252 253 254 255 256 257 259 261 265 267 269 271 274 276 278 278 281 288 294 298 300 304 310 307 291 282 294 298 299 289 295 296 295 278 263 205 212 215 221 232 221 229
242 244 246 250 252 255 256 259 261 263 263 266 270 272 272 276 278 283 287 294 296 299 303 309 299 283 279 276 293 305 304 292 294 293 254 241 212 221 215 223 223 230 234
239 243 242 243 247 250 253 255 256 256 258 261 264 267 274 272 279 283 289 291 294 297 304 304 287 280 281 282 295 298 299 297 294 284 249 227 216 221 215 216 217 228 238
233 233 231 234 239 243 245 246 248 250 253 257 262 265 270 274 278 286 286 289 292 299 303 295 270 273 277 289 288 293 296 295 291 266 240 227 232 218 212 218 219 219 221
214 211 214 220 228 233 235 240 243 247 250 254 259 262 269 273 280 281 284 289 295 301 298 279 270 268 278 288 293 297 297 293 273 254 238 230 226 228 214 205 212 218 215
166 173 188 203 211 219 224 240 247 249 249 243 251 261 265 272 273 278 283 290 298 299 290 258 262 274 288 293 297 297 296 290 269 246 230 223 219 215 216 214 200 203 212
150 154 158 176 191 215 252 252 252 246 245 252 254 261 264 269 274 276 282 293 297 298 264 252 270 287 294 300 294 294 290 276 261 241 226 219 215 213 213 222 227 222 205
123 130 139 179 224 269 253 268 261 256 255 253 256 258 264 271 273 278 287 291 288 283 243 264 289 301 302 300 295 289 280 269 243 226 222 218 211 219 214 211 213 216 212
121 136 162 202 256 299 281 268 257 248 244 248 257 265 267 267 276 285 288 287 282 231 249 281 307 312 310 300 289 275 270 255 239 226 226 226 220 222 222 219 211 209 203
132 200 199 219 274 279 263 258 244 242 246 254 260 262 263 274 282 282 285 286 221 221 252 303 315 317 312 307 291 279 269 249 233 229 224 222 211 207 208 214 208 198 197
183 189 201 230 259 259 250 237 239 245 249 256 261 263 275 281 285 278 273 227 209 222 274 315 319 326 322 332 320 288 257 233 209 200 200 198 197 202 190 182 180 186 195
186 196 217 242 259 266 240 237 246 250 249 257 258 269 280 280 277 271 265 201 207 213 283 312 335 339 355 354 2 356 171 176 170 170 172 178 174 168 172 172 175 181 186
191 205 225 252 270 253 241 243 246 249 248 253 266 276 283 270 279 272 220 196 198 208 259 322 3 8 37 35 47 68 110 121 125 132 141 146 152 160 166 172 174 178 187
196 208 233 252 252 234 236 242 242 247 242 265 280 280 279 263 264 259 190 195 190 198 214 37 41 44 54 54 50 73 111 118 121 124 128 138 146 153 159 167 173 176 176
196 214 234 231 220 229 240 239 248 243 246 267 283 277 267 247 243 218 189 190 184 189 196 147 77 60 62 67 64 66 101 111 112 113 114 115 125 142 145 148 152 152 157
191 217 212 211 219 231 235 242 248 249 262 275 279 272 245 238 226 210 195 194 191 193 185 181 129 97 75 69 67 65 72 95 110 111 110 110 107 105 108 113 117 124 134
184 200 202 211 221 215 235 244 248 263 273 277 269 256 240 226 221 214 203 201 197 200 202 195 175 161 134 94 86 83 87 96 116 112 115 120 117 119 121 129 139 149 153
193 202 210 221 205 215 238 260 259 273 278 264 263 257 240 221 222 214 208 207 204 202 203 207 203 191 187 204 213 164 139 137 142 147 158 165 173 178 187 184 187 200 218
183 205 209 208 210 222 267 275 275 284 287 274 257 236 216 217 217 213 212 212 210 206 207 216 228 227 220 209 209 217 210 205 196 209 217 214 212 213 219 220 223 230 240
221 214 200 209 204 224 229 246 281 305 301 284 261 242 226 218 217 222 217 213 211 210 209 213 223 232 232 238 234 224 236 238 235 241 249 234 231 233 236 239 242 250 255
218 207 207 204 191 193 149 14 356 321 51 44 313 282 260 234 223 221 215 213 212 212 214 218 222 227 230 231 236 234 240 244 246 247 250 251 247 248 249 253 255 263 263
209 209 212 209 205 202 214 260 304 336 5 26 26 332 242 180 182 190 193 204 211 216 221 225 232 237 240 245 249 251 253 251 251 251 253 255 257 261 262 262 265 268 268
208 206 211 214 219 212 234 251 213 35 27 30 36 39 195 198 183 183 192 198 203 210 220 228 233 241 251 260 263 263 261 261 263 264 262 264 265 267 266 266 268 269 269
197 210 219 221 226 227 228 246 235 235 325 337 352 28 47 46 204 214 218 219 224 232 240 243 243 246 266 265 265 267 268 266 265 267 268 269 269 268 269 269 270 271 272
Height
10624 10638 10649 10655 10661 10670 10681 10683 10685 10690 10695 10696 10694 10693 10693 10688 10687 10685 10681 10676 10673 10668 10661 10655 10647 10640 10637 10636 10634 10632 10628 10625 10621 10619 10616 10613 10617 10620 10624 10630 10638 10642 10644
10605 10619 10630 10639 10645 10658 10664 10667 10673 10680 10684 10683 10683 10684 10681 10680 10679 10676 10672 10669 10665 10659 10653 10647 10641 10636 10634 10633 10631 10629 10626 10622 10618 10615 10614 10613 10615 10618 10622 10626 10633 10638 10642
10585 10598 10612 10624 10633 10641 10649 10654 10662 10667 10671 10671 10672 10673 10671 10671 10671 10667 10664 10661 10656 10651 10646 10640 10634 10631 10630 10628 10626 10624 10621 10619 10615 10613 10613 10611 10612 10616 10619 10624 10629 10636 10638
10563 10582 10598 10611 10619 10628 10635 10642 10649 10654 10657 10659 10661 10661 10660 10661 10660 10658 10656 10653 10647 10643 10638 10634 10629 10626 10625 10624 10622 10619 10617 10614 10611 10609 10609 10609 10609 10612 10617 10621 10627 10632 10635
10558 10572 10588 10601 10609 10617 10624 10631 10637 10640 10644 10650 10649 10650 10651 10651 10649 10649 10647 10643 10639 10635 10631 10627 10624 10622 10620 10619 10616 10614 10611 10608 10606 10605 10605 10606 10608 10610 10613 10618 10624 10628 10632
10553 10566 10578 10590 10599 10606 10614 10620 10625 10629 10636 10638 10638 10641 10641 10642 10641 10641 10638 10635 10631 10627 10624 10620 10619 10617 10616 10613 10611 10607 10605 10602 10601 10600 10600 10602 10603 10606 10610 10614 10619 10625 10629
10542 10557 10571 10582 10590 10598 10605 10609 10615 10622 10626 10630 10631 10630 10632 10633 10634 10633 10629 10626 10623 10620 10616 10613 10613 10612 10610 10607 10602 10599 10596 10594 10593 10593 10594 10596 10599 10601 10606 10611 10617 10622 10627
10540 10552 10567 10577 10586 10592 10600 10606 10610 10614 10619 10620 10622 10623 10625 10627 10626 10624 10621 10618 10616 10612 10609 10609 10608 10607 10603 10599 10594 10591 10588 10585 10585 10586 10588 10592 10595 10597 10601 10607 10613 10618 10623
10538 10549 10560 10575 10586 10591 10597 10599 10603 10608 10611 10613 10614 10616 10618 10618 10618 10616 10614 10611 10608 10606 10605 10605 10603 10600 10596 10591 10586 10581 10579 10578 10578 10580 10582 10585 10589 10594 10599 10603 10607 10614 10620
10532 10547 10559 10576 10585 10591 10591 10594 10597 10600 10602 10604 10607 10610 10610 10610 10610 10608 10606 10604 10602 10601 10601 10601 10598 10594 10589 10583 10578 10573 10571 10570 10571 10574 10576 10580 10584 10588 10592 10597 10602 10608 10615
10531 10550 10563 10577 10582 10586 10588 10590 10592 10594 10596 10600 10601 10603 10604 10604 10602 10601 10599 10598 10597 10597 10598 10597 10594 10589 10582 10576 10570 10567 10565 10564 10566 10568 10570 10573 10577 10582 10587 10592 10598 10604 10610
10545 10562 10569 10574 10578 10580 10582 10584 10586 10589 10592 10594 10596 10597 10597 10596 10595 10594 10594 10593 10593 10595 10596 10593 10589 10583 10576 10569 10564 10561 10559 10558 10558 10560 10564 10567 10571 10576 10581 10587 10593 10598 10606
10544 10558 10565 10571 10574 10576 10577 10579 10582 10585 10587 10589 10591 10591 10590 10590 10589 10589 10590 10589 10591 10593 10593 10590 10586 10579 10571 10566 10561 10557 10555 10554 10555 10556 10560 10564 10569 10573 10575 10579 10587 10595 10603
10544 10554 10562 10566 10569 10571 10572 10574 10578 10581 10582 10585 10585 10585 10585 10584 10583 10584 10584 10586 10589 10591 10591 10589 10584 10577 10570 10565 10560 10557 10555 10555 10554 10556 10560 10565 10569 10572 10576 10580 10585 10592 10599
10544 10553 10559 10562 10564 10565 10567 10571 10574 10576 10579 10580 10580 10579 10578 10577 10578 10579 10580 10584 10587 10589 10590 10589 10584 10578 10572 10568 10565 10562 10559 10558 10559 10561 10566 10569 10573 10576 10580 10584 10588 10593 10599
10544 10549 10554 10557 10558 10560 10564 10567 10569 10572 10573 10574 10574 10573 10572 10573 10574 10574 10577 10582 10586 10588 10589 10588 10585 10580 10576 10573 10571 10569 10567 10566 10567 10569 10572 10574 10577 10580 10583 10587 10591 10595 10600
10540 10546 10550 10552 10554 10557 10560 10563 10565 10567 10569 10569 10569 10568 10567 10569 10571 10571 10575 10580 10584 10586 10588 10588 10587 10584 10581 10579 10577 10576 10575 10574 10575 10576 10579 10581 10584 10586 10588 10590 10593 10598 10602
10536 10540 10545 10547 10550 10554 10558 10559 10560 10562 10563 10564 10563 10562 10563 10565 10567 10569 10574 10578 10582 10585 10587 10587 10587 10587 10586 10585 10584 10583 10582 10582 10583 10584 10586 10588 10590 10592 10595 10597 10600 10602 10606
10533 10539 10542 10546 10549 10553 10555 10555 10557 10558 10558 10557 10557 10557 10559 10560 10564 10567 10572 10576 10580 10583 10585 10586 10587 10588 10588 10588 10588 10589 10589 10589 10589 10591 10592 10593 10595 10597 10599 10602 10604 10607 10610
10534 10538 10541 10544 10547 10550 10551 10553 10555 10555 10554 10554 10553 10553 10555 10558 10561 10564 10568 10573 10577 10580 10582 10584 10586 10587 10588 10589 10590 10591 10591 10592 10593 10595 10596 10598 10599 10601 10602 10604 10606 10608 10610
10533 10536 10538 10542 10545 10548 10550 10551 10551 10551 10551 10551 10551 10550 10551 10553 10557 10560 10563 10569 10574 10577 10580 10582 10584 10586 10588 10589 10590 10591 10591 10593 10594 10595 10596 10597 10599 10600 10602 10603 10604 10606 10607
10532 10535 10537 10540 10544 10547 10549 10549 10549 10550 10549 10549 10548 10548 10549 10551 10553 10556 10560 10565 10570 10574 10576 10579 10581 10583 10584 10586 10587 10589 10590 10591 10591 10593 10594 10595 10596 10597 10598 10599 10599 10599 10599
10530 10534 10536 10540 10543 10545 10547 10548 10549 10548 10547 10546 10547 10547 10548 10548 10550 10552 10556 10561 10565 10569 10572 10575 10577 10579 10580 10582 10583 10584 10585 10586 10587 10588 10589 10590 10591 10592 10592 10592 10592 10592 10592
10530 10533 10535 10538 10540 10543 10545 10547 10548 10548 10547 10546 10545 10545 10544 10545 10547 10550 10554 10557 10560 10564 10567 10569 10572 10574 10575 10577 10578 10578 10579 10580 10580 10581 10582 10583 10583 10584 10585 10585 10584 10584 10583
10527 10530 10533 10536 10538 10542 10543 10546 10547 10548 10548 10548 10548 10547 10547 10547 10548 10550 10552 10555 10557 10560 10563 10565 10567 10569 10571 10572 10572 10571 10572 10573 10574 10574 10574 10574 10575 10574 10574 10574 10573 10572 10571
10524 10528 10531 10533 10536 10539 10541 10544 10546 10548 10549 10549 10550 10550 10549 10549 10550 10552 10554 10556 10558 10560 10562 10563 10564 10565 10566 10565 10564 10564 10564 10564 10564 10565 10565 10565 10565 10564 10564 10564 10563 10562 10560